Zurück zum Katalog

STARLINK-4709

AktivKommunikationVLEO
NORAD 53778·PAYLOAD·🇺🇸 United States

Gestartet Sep 11, 2022 von Cape Canaveral Space Force Station

Loading…

Nächste Überflüge (nächste 24 Stunden)

TLE

AktuellSource: CelesTrak SupGP

Epoche: Sep 14, 2026, 21:29 UTC

1 53778C 22111F   26257.89562500 -.00021398  00000+0 -68820-3 0  2572
2 53778  53.1586 137.9247 0001371  85.0768 121.1294 15.31708004    19

Verfolge STARLINK-4709 in Echtzeit mit AllMySat

Download on the App Store